Regional Weather Roundup
Issued by NWS

Home | Current Version | Previous Version | Text Only | Print | Product List | Glossary Off
Versions: 1 2 3 4 5 6 7 8 9 10 11 12 13 14 15 16 17 18 19 20 21 22 23 24 25 26 27 28 29 30 31 32 33 34 35 36 37 38 39 40 41 42 43 44 45 46 47 48 49 50

211
ASUS43 KDMX 231503
RWRIA

WEATHER ROUNDUP FOR IOWA
NATIONAL WEATHER SERVICE DES MOINES IA
1000 AM CDT TUE AUG 23 2016

NOTE: "FAIR" INDICATES FEW OR NO CLOUDS BELOW 12,000 FEET WITH NO
SIGNIFICANT WEATHER AND/OR OBSTRUCTIONS TO VISIBILITY.

* - THESE STATIONS ARE NOT NWS STATIONS...THUS NOT UNDER NWS
QUALITY CONTROL.  THEY ALSO DO NOT REPORT WEATHER SUCH
AS PRECIPITATION OR FOG.

IAZ001>003-012>014-020>022-031>034-043>046-231600-
   NORTHWEST IOWA

CITY           SKY/WX    TMP DP  RH WIND       PRES   REMARKS
CARROLL *      PTSUNNY   75  68  78 S13       29.98S
CHEROKEE *     CLOUDY    72  68  86 S10       29.94R
DENISON *      MOSUNNY   73  68  83 S10G16    29.93F
LE MARS *      PTSUNNY   73  66  78 S16       29.90S
ORANGE CITY *  CLOUDY    72  66  83 S13       29.91S
SHELDON *      CLOUDY    70  66  88 S15       29.90S
SIOUX CITY     CLOUDY    71  65  81 SE13      29.90F
SPENCER        MOSUNNY   71  63  75 S14       29.94S
STORM LAKE *   CLOUDY    70  66  88 S12G18    29.96S
$$

IAZ055>058-069>071-079>083-090>094-231600-
   SOUTHWEST IOWA

CITY           SKY/WX    TMP DP  RH WIND       PRES   REMARKS
ATLANTIC *     PTSUNNY   72  68  88 S13G20    29.99S
AUDUBON *      SUNNY     75  70  83 S13G18    29.99F
CLARINDA *       N/A     70  68  94 MISG      30.03S
COUNCIL BLFS * CLOUDY    70  68  94 S14G21    29.97S
CRESTON *      CLOUDY    70  66  88 S13G21    30.05R
HARLAN  *      PTSUNNY   73  70  88 S13G20    30.00S
LAMONI         CLOUDY    70  67  90 S12G20    30.06F
RED OAK *      CLOUDY    70  68  94 S14       29.99S
SHENANDOAH *   CLOUDY    72 -36   1 S13       29.99S
$$

IAZ047>049-059>061-072>074-084-231600-
   CENTRAL IOWA

CITY           SKY/WX    TMP DP  RH WIND       PRES   REMARKS
AMES           MOSUNNY   73  67  81 S10       30.03F
ANKENY *         N/A    N/A N/A N/A MISG        N/A
BOONE *        MOSUNNY   73  66  78 SE13      30.02S
CHARITON *       N/A     73  68  83 MISG      30.07S
DES MOINES     PTSUNNY   74  66  76 S15       30.03F
GRINNELL*      SUNNY     71  64  77 S10       30.09S
KNOXVILLE *    MOSUNNY   73  66  78 S10       30.06S
NEWTON *       SUNNY     72  68  88 S10       30.07S
PERRY *          N/A     74  70  88 S10       30.02R
$$

IAZ004>006-015-016-023>025-035-036-231600-
   NORTH CENTRAL IOWA

CITY           SKY/WX    TMP DP  RH WIND       PRES   REMARKS
ALGONA *       MOSUNNY   72  66  83 S13G21    29.99S
ESTHERVILLE    MOSUNNY   68  65  90 S13G21    29.95F
FORT DODGE *   MOSUNNY   72  64  78 S9        30.01S
MASON CITY     MOSUNNY   73  65  75 S15G22    30.03F
FOREST CITY *    N/A     70  64  83 S13       30.01S
WEBSTER CITY * PTSUNNY   70  66  88 S13       30.00S
IOWA FALLS *     N/A     72  65  77 S12       30.05F
$$

IAZ007>011-017>019-026>030-037>042-050>054-066-231600-
   NORTHEAST IOWA

CITY           SKY/WX    TMP DP  RH WIND       PRES   REMARKS
CEDAR RAPIDS   MOSUNNY   71  66  84 SE12      30.11S
CHARLES CITY * SUNNY     72  66  83 S12       30.06S
CLINTON *      MOSUNNY   73  64  73 S10       30.17S
DECORAH *      MOSUNNY   72  64  78 S10G20    30.08S
DUBUQUE        SUNNY     71  63  75 S14       30.15S
MONTICELLO *   MOSUNNY   72  64  78 S12G17    30.13S
OELWEIN *      MOSUNNY   70  64  83 S13       30.10S
WATERLOO       SUNNY     71  63  75 S13       30.07S
$$

IAZ064-065-067-068-078-231600-
   EAST CENTRAL IOWA

CITY           SKY/WX    TMP DP  RH WIND       PRES   REMARKS
DAVENPORT      SUNNY     74  62  66 S8        30.16S
IOWA CITY      MOSUNNY   73  64  73 S9        30.14S
MT. PLEASANT * SUNNY     77  65  66 S10       30.14S
MUSCATINE *    SUNNY     75  63  64 S13G21    30.14F
QUAD CITIES    SUNNY     74  63  68 S7        30.16S
$$

IAZ062-063-075>077-085>089-095>099-231600-
   SOUTHEAST IOWA

CITY           SKY/WX    TMP DP  RH WIND       PRES   REMARKS
BURLINGTON     SUNNY     73  64  73 S12       30.15S
FAIRFIELD *    SUNNY     73  64  73 S14       30.12S
FORT MADISON * PTSUNNY   73  64  73 S7        30.16S
KEOKUK *       MOSUNNY   75  63  64 S13G18    30.14S
OSKALOOSA *      N/A     71  65  82 S9        30.10S
CENTERVILLE *    N/A     73  66  78 SE9       30.11S
OTTUMWA        SUNNY     73  64  73 S12       30.10S
WASHINGTON *   SUNNY     72  66  83 S13       30.14S
$$

ABBREVIATIONS USED IN REMARKS
   TC - TEMPERATURES IN CELSIUS
  WCI - WIND CHILL INDEX
   HX - HEAT INDEX
  VSB - VISIBILITY
$$





USA.gov is the U.S. government's official web portal to all federal, state and local government web resources and services.